Two Harbors, MN

6:48 PM CDT on September 22, 2017 (GMT -0500)
Helgeson

Weather History for KTWM - June, 2013

Change the Weather History Date:

Thursday, June 27, 2013

  Actual Average Record
Temperature  
Mean Temperature 68 °F -  
Max Temperature 82 °F 69 °F 86 °F (1960)
Min Temperature 55 °F 47 °F 37 °F (1980)
Cooling Degree Days 4    
Growing Degree Days 18 (Base 50)    
Moisture  
Dew Point 57 °F    
Average Humidity 66    
Maximum Humidity 88    
Minimum Humidity 42    
Precipitation  
Precipitation 0.58 in - - ()
Sea Level Pressure  
Sea Level Pressure 29.71 in    
Wind  
Wind Speed 5 mph (West)    
Max Wind Speed 18 mph    
Max Gust Speed 32 mph    
Visibility 9 miles    
Events Fog , Rain , Thunderstorm    
Averages and records for this station are not official NWS values.
T = Trace of Precipitation, MM = Missing Value Source: NWS Daily Summary

Daily Weather History Graph

Daily Weather History Graph

Search for Another Location

Airport or City:

Trip Planner

Search our weather history database for the weather conditions in past years. The results will help you decide how hot, cold, wet, or windy it might be!

Date:

Astronomy

Jun. 27, 2013 Rise Set
Actual Time 5:13 AM CDT 9:06 PM CDT
Civil Twilight 4:33 AM CDT 9:46 PM CDT
Nautical Twilight 3:39 AM CDT 10:40 PM CDT
Astronomical Twilight 2:17 AM CDT 12:01 AM CDT
Moon 11:40 PM CDT (6/27) 10:36 AM CDT (6/27)
Length of Visible Light 17h 12m
Length of Day
15h 52m
Waning Gibbous, 76% of the Moon is Illuminated
Jun 27
Waning Gibbous
Jun 29
Last Quarter
Jul 8
New
Jul 15
First Quarter
Jul 22
Full

Hourly Weather History & Observations

Time (CDT) Temp. Heat Index Dew Point Humidity Pressure Visibility Wind Dir Wind Speed Gust Speed Precip Events Conditions
12:11 AM 57.2 °F - 53.6 °F 88% 29.75 in 1.8 mi Calm Calm - N/A   Haze
12:31 AM 57.2 °F - 53.6 °F 88% 29.75 in 3.0 mi Calm Calm - N/A   Haze
12:51 AM 57.2 °F - 53.6 °F 88% 29.74 in 0.2 mi Calm Calm - N/A Fog Fog
1:11 AM 57.2 °F - 53.6 °F 88% 29.76 in 0.2 mi Calm Calm - N/A   Haze
1:31 AM 57.2 °F - 53.6 °F 88% 29.75 in 0.2 mi Calm Calm - N/A   Haze
1:51 AM 57.2 °F - 51.8 °F 82% 29.75 in 0.2 mi Calm Calm - N/A   Haze
2:11 AM 57.2 °F - 51.8 °F 82% 29.74 in 3.0 mi Calm Calm - N/A   Haze
2:31 AM 55.4 °F - 51.8 °F 88% 29.74 in 7.0 mi Calm Calm - N/A   Clear
2:51 AM 55.4 °F - 51.8 °F 88% 29.74 in 4.0 mi Calm Calm - N/A   Haze
3:12 AM 55.4 °F - 51.8 °F 88% 29.74 in 7.0 mi Calm Calm - N/A   Clear
3:31 AM 60.8 °F - 55.4 °F 82% 29.74 in 10.0 mi West 3.5 mph - N/A   Clear
3:51 AM 60.8 °F - 55.4 °F 82% 29.74 in 10.0 mi WNW 3.5 mph - N/A   Clear
4:11 AM 60.8 °F - 55.4 °F 82% 29.73 in 10.0 mi WNW 3.5 mph - N/A   Clear
4:31 AM 62.6 °F - 57.2 °F 82% 29.74 in 10.0 mi NW 4.6 mph - N/A   Clear
4:51 AM 62.6 °F - 57.2 °F 82% 29.75 in 10.0 mi NW 4.6 mph - N/A   Clear
5:11 AM 62.6 °F - 57.2 °F 82% 29.80 in 7.0 mi WNW 18.4 mph 32.2 mph 0.01 in Rain , Thunderstorm Thunderstorms and Rain
5:31 AM 60.8 °F - 55.4 °F 82% 29.77 in 5.0 mi North 11.5 mph 18.4 mph 0.56 in Rain , Thunderstorm Heavy Thunderstorms and Rain
5:51 AM 60.8 °F - 55.4 °F 82% 29.76 in 10.0 mi North 5.8 mph - 0.57 in Rain Light Rain
6:11 AM 64.4 °F - 55.4 °F 73% 29.74 in 10.0 mi NNW 4.6 mph 10.4 mph 0.01 in   Overcast
6:31 AM 62.6 °F - 55.4 °F 77% 29.74 in 10.0 mi NW 4.6 mph - 0.01 in   Scattered Clouds
6:51 AM 62.6 °F - 57.2 °F 82% 29.74 in 10.0 mi SSW 4.6 mph - 0.01 in   Scattered Clouds
7:11 AM 62.6 °F - 57.2 °F 82% 29.74 in 10.0 mi SW 4.6 mph - N/A   Scattered Clouds
7:31 AM 64.4 °F - 57.2 °F 77% 29.73 in 10.0 mi SSW 6.9 mph - N/A   Scattered Clouds
7:51 AM 64.4 °F - 59.0 °F 83% 29.74 in 10.0 mi SW 5.8 mph - N/A   Scattered Clouds
8:11 AM 66.2 °F - 60.8 °F 83% 29.73 in 10.0 mi SW 5.8 mph - N/A   Clear
8:31 AM 69.8 °F - 60.8 °F 73% 29.73 in 10.0 mi SW 6.9 mph - N/A   Clear
8:51 AM 71.6 °F - 62.6 °F 73% 29.73 in 10.0 mi WSW 6.9 mph - N/A   Clear
9:11 AM 71.6 °F - 62.6 °F 73% 29.72 in 10.0 mi West 6.9 mph - N/A   Scattered Clouds
9:31 AM 73.4 °F - 62.6 °F 69% 29.72 in 10.0 mi West 8.1 mph - N/A   Clear
9:51 AM 73.4 °F - 62.6 °F 69% 29.72 in 10.0 mi West 8.1 mph - N/A   Clear
10:11 AM 73.4 °F - 62.6 °F 69% 29.71 in 10.0 mi West 9.2 mph 16.1 mph N/A   Clear
10:31 AM 75.2 °F - 62.6 °F 65% 29.71 in 10.0 mi WNW 6.9 mph - N/A   Clear
10:52 AM 75.2 °F - 62.6 °F 65% 29.71 in 10.0 mi West 6.9 mph - N/A   Clear
11:11 AM 77.0 °F - 62.6 °F 61% 29.70 in 10.0 mi West 6.9 mph - N/A   Clear
11:31 AM 78.8 °F - 62.6 °F 57% 29.70 in 10.0 mi WSW 9.2 mph - N/A   Clear
11:52 AM 80.6 °F 81.5 °F 60.8 °F 51% 29.70 in 10.0 mi West 8.1 mph - N/A   Scattered Clouds
12:11 PM 78.8 °F - 59.0 °F 51% 29.70 in 10.0 mi West 9.2 mph 20.7 mph N/A   Scattered Clouds
12:31 PM 78.8 °F - 60.8 °F 54% 29.69 in 10.0 mi West 8.1 mph - N/A   Scattered Clouds
12:52 PM 80.6 °F 81.1 °F 59.0 °F 48% 29.69 in 10.0 mi NW 8.1 mph - N/A   Clear
1:11 PM 78.8 °F - 59.0 °F 51% 29.68 in 10.0 mi West 6.9 mph 18.4 mph N/A   Clear
1:31 PM 80.6 °F 81.5 °F 60.8 °F 51% 29.68 in 10.0 mi West 3.5 mph - N/A   Scattered Clouds
1:52 PM 80.6 °F 81.5 °F 60.8 °F 51% 29.68 in 10.0 mi West 12.7 mph 19.6 mph N/A   Scattered Clouds
2:11 PM 82.4 °F 82.9 °F 60.8 °F 48% 29.68 in 10.0 mi West 10.4 mph 18.4 mph N/A   Scattered Clouds
2:31 PM 82.4 °F 82.5 °F 59.0 °F 45% 29.68 in 10.0 mi West 12.7 mph 20.7 mph N/A   Mostly Cloudy
2:52 PM 82.4 °F 82.5 °F 59.0 °F 45% 29.68 in 10.0 mi West 12.7 mph 21.9 mph N/A   Scattered Clouds
3:11 PM 82.4 °F 82.5 °F 59.0 °F 45% 29.67 in 10.0 mi West 10.4 mph 23.0 mph N/A   Scattered Clouds
3:32 PM 82.4 °F 82.0 °F 57.2 °F 42% 29.67 in 10.0 mi WNW 9.2 mph 21.9 mph N/A   Clear
3:51 PM 82.4 °F 82.0 °F 57.2 °F 42% 29.67 in 10.0 mi West 17.3 mph 27.6 mph N/A   Scattered Clouds
4:11 PM 80.6 °F 80.8 °F 57.2 °F 45% 29.68 in 10.0 mi West 8.1 mph 17.3 mph N/A   Scattered Clouds
4:32 PM 80.6 °F 80.8 °F 57.2 °F 45% 29.67 in 10.0 mi West 16.1 mph 23.0 mph N/A   Scattered Clouds
4:51 PM 82.4 °F 82.0 °F 57.2 °F 42% 29.68 in 10.0 mi West 17.3 mph 27.6 mph N/A   Scattered Clouds
5:11 PM 80.6 °F 80.8 °F 57.2 °F 45% 29.68 in 10.0 mi West 18.4 mph 26.5 mph N/A   Scattered Clouds
5:31 PM 80.6 °F 80.8 °F 57.2 °F 45% 29.69 in 10.0 mi WNW 11.5 mph 19.6 mph N/A Thunderstorm Scattered Clouds
5:51 PM 80.6 °F 80.8 °F 57.2 °F 45% 29.69 in 10.0 mi West 15.0 mph 25.3 mph N/A   Scattered Clouds
6:11 PM 78.8 °F - 55.4 °F 44% 29.69 in 10.0 mi West 10.4 mph 21.9 mph N/A   Scattered Clouds
6:31 PM 78.8 °F - 55.4 °F 44% 29.69 in 10.0 mi West 10.4 mph 18.4 mph N/A   Clear
6:51 PM 78.8 °F - 55.4 °F 44% 29.69 in 10.0 mi West 11.5 mph 19.6 mph N/A   Clear
7:11 PM 78.8 °F - 55.4 °F 44% 29.70 in 10.0 mi WNW 6.9 mph 17.3 mph N/A   Clear
7:31 PM 77.0 °F - 55.4 °F 47% 29.70 in 10.0 mi West 6.9 mph - N/A   Clear
7:51 PM 77.0 °F - 55.4 °F 47% 29.69 in 10.0 mi West 6.9 mph - N/A   Clear
8:11 PM 75.2 °F - 55.4 °F 50% 29.69 in 10.0 mi West 8.1 mph - N/A   Clear
8:31 PM 73.4 °F - 55.4 °F 53% 29.70 in 10.0 mi West 6.9 mph - N/A   Clear
8:51 PM 73.4 °F - 55.4 °F 53% 29.71 in 10.0 mi West 11.5 mph 23.0 mph N/A   Scattered Clouds
9:11 PM 64.4 °F - 55.4 °F 73% 29.70 in 10.0 mi NW 3.5 mph - N/A   Scattered Clouds
9:31 PM 62.6 °F - 55.4 °F 77% 29.70 in 10.0 mi West 3.5 mph - N/A   Clear
9:51 PM 62.6 °F - 55.4 °F 77% 29.71 in 10.0 mi Calm Calm - N/A   Clear
10:11 PM 60.8 °F - 55.4 °F 82% 29.70 in 10.0 mi Calm Calm - N/A   Clear
10:31 PM 62.6 °F - 55.4 °F 77% 29.71 in 10.0 mi Calm Calm - N/A   Scattered Clouds
10:51 PM 62.6 °F - 55.4 °F 77% 29.72 in 10.0 mi Calm Calm - N/A   Mostly Cloudy
11:11 PM 62.6 °F - 55.4 °F 77% 29.71 in 10.0 mi WNW 4.6 mph - N/A   Scattered Clouds
11:31 PM 62.6 °F - 57.2 °F 82% 29.70 in 10.0 mi WNW 6.9 mph - N/A   Scattered Clouds
11:51 PM 62.6 °F - 57.2 °F 82% 29.70 in 10.0 mi Calm Calm - N/A   Clear